Location: Ojai
(34.4480°N, 119.2420°W)
Time: 15:21:11
(UTC-07:00)

OTV 5 (USA 277) - Visible Passes

Search period start: 18 August 2018 00:00
Search period end: 28 August 2018 00:00
Orbit: 316 x 317 km, 54.5° (Epoch: 30 July)

Date Brightness Start Highest point End Pass type
(mag) Time Alt. Az. Time Alt. Az. Time Alt. Az.
18 Aug ? 04:49:09 75° ESE 04:49:09 75° ESE 04:51:41 10° SE visible
18 Aug ? 21:03:51 10° WSW 21:06:11 26° NW 21:08:32 10° NNE visible
19 Aug ? 21:20:06 10° NW 21:20:50 11° NW 21:21:34 10° NNW visible
20 Aug ? 19:58:08 10° WSW 20:00:45 46° NW 20:03:23 10° NNE visible
21 Aug ? 20:13:28 10° W 20:15:18 16° NW 20:17:09 10° N visible
